Content
SEND FEEDBACK

Daily
Averages
Monthly
Summary
Austria

LINZ, AUSTRIA


Home > Europe > Austria
Elevation: 970 feet     Latitude: 48 14N     Longitude: 014 11E

WEATHER
 
SELECT A DAY
Number of Records: 311,657;   Date Range: 7/1/96 - 8/10/14
 
SHARE

PRINT THIS DATA

[ ← Previous Day ]
WEATHER ALMANAC - AUGUST 18, 2013
[ Next Day → ]
[ °C ]   °F
Weather ElementAverageHighLow
Temperature74.5 °F89.6 °F (4:20 pm)57.2 °F (6:20 am)
Dewpoint56.4 °F64.4 °F (11:20 pm)51.8 °F (4:20 pm)
Humidity55.9 %94 % (3:20 am)21 % (5:00 pm)
Barometer30.01 in30.06 in (7:20 am)29.89 in (5:00 pm)
Wind Speed3.9 mph23 mph (11:20 pm)
Weather ElementAverage
Visibility9.5 mi
Wind DirectionE (92.9 °)

Weather ElementTotal
Precipitation---
Cooling Degree Days8.4 (Base 65)
Growing Degree Days23.4 (Base 50)
Averaged from 55 records on August 18, 2013
WEATHER CONDITIONS BREAKOUT
WIND DIRECTION BREAKOUT
WEATHER BY HOUR - AUGUST 18, 2013
[ °C ]   °F
Local TimeTemperatureDewpointHumidityBarometerVisibilityWind DirectionWind SpeedGust SpeedPrecipitationEventsConditions
12:50 AM64.4 °F57.2 °F77 %30.04 in6.2 miVariable1.2 mphMostly Cloudy
1:20 AM64.4 °F55.4 °F73 %30.04 in6.2 miVariable1.2 mphPartly Cloudy
1:50 AM64.4 °F55.4 °F73 %30.04 in6.2 miVariable1.2 mph
2:00 AM64.0 °F55.0 °F65 %30.01 in28.0 mi°2.2 mph
2:20 AM62.6 °F55.4 °F77 %30.04 in6.2 miVariable1.2 mphPartly Cloudy
2:50 AM62.6 °F55.4 °F77 %30.04 in6.2 miVariable1.2 mphPartly Cloudy
3:20 AM60.8 °F59.0 °F94 %30.04 in6.2 miVariable1.2 mphPartly Cloudy
3:50 AM60.8 °F55.4 °F82 %30.04 inVariable1.2 mphClear
4:20 AM60.8 °F55.4 °F82 %30.04 inVariable1.2 mphClear
4:50 AM60.8 °F55.4 °F82 %30.04 inVariable1.2 mphClear
5:00 AM60.0 °F55.0 °F80 %30.03 in19.0 mi°2.2 mphScattered Clouds
5:20 AM60.8 °F55.4 °F82 %30.04 inVariable1.2 mphClear
5:50 AM59.0 °F55.4 °F88 %30.04 inVariable1.2 mphClear
6:20 AM57.2 °F53.6 °F88 %30.04 inWSW (250°)3.5 mphClear
6:50 AM60.8 °F55.4 °F82 %30.04 inNW (320°)2.3 mphClear
7:20 AM62.6 °F55.4 °F77 %30.06 inVariable1.2 mphClear
7:50 AM64.4 °F57.2 °F77 %30.06 inVariable2.3 mphClear
8:00 AM64.0 °F57.0 °F71 %30.05 in22.0 mi°2.2 mphScattered Clouds
8:20 AM66.2 °F57.2 °F73 %30.06 inVariable1.2 mphClear
8:50 AM69.8 °F55.4 °F60 %30.06 inVariable2.3 mphClear
9:20 AM69.8 °F55.4 °F60 %30.06 inESE (120°)3.5 mphClear
9:50 AM71.6 °F55.4 °F57 %30.06 inVariable2.3 mphClear
10:20 AM73.4 °F55.4 °F53 %30.06 inVariable3.5 mphClear
10:50 AM75.2 °F57.2 °F53 %30.04 in6.2 miVariable2.3 mphPartly Cloudy
11:00 AM76.0 °F57.0 °F41 %30.02 in25.0 mi°2.2 mphScattered Clouds
11:20 AM78.8 °F55.4 °F44 %30.04 in6.2 miVariable3.5 mphPartly Cloudy
11:50 AM78.8 °F57.2 °F47 %30.04 in6.2 miVariable2.3 mphPartly Cloudy
12:20 PM80.6 °F55.4 °F42 %30.04 in6.2 miNNE (30°)3.5 mphPartly Cloudy
12:50 PM82.4 °F59.0 °F45 %30.01 in6.2 miVariable3.5 mphPartly Cloudy
1:20 PM84.2 °F57.2 °F40 %30.01 in6.2 miVariable3.5 mphScattered Clouds
1:50 PM86.0 °F55.4 °F35 %30.01 in6.2 miVariable5.8 mphScattered Clouds
2:00 PM85.0 °F54.0 °F25 %29.95 in25.0 mi°6.7 mphScattered Clouds
2:20 PM86.0 °F53.6 °F33 %29.98 in6.2 miENE (70°)5.8 mphScattered Clouds
2:50 PM87.8 °F55.4 °F33 %29.98 in6.2 miEast (100°)6.9 mphScattered Clouds
3:20 PM87.8 °F55.4 °F33 %29.98 in6.2 miESE (110°)4.6 mphPartly Cloudy
3:50 PM87.8 °F53.6 °F31 %29.95 in6.2 miVariable3.5 mphScattered Clouds
4:20 PM89.6 °F51.8 °F27 %29.95 in6.2 miVariable3.5 mphScattered Clouds
4:50 PM87.8 °F53.6 °F31 %29.95 in6.2 miVariable3.5 mphScattered Clouds
5:00 PM89.0 °F54.0 °F21 %29.89 in25.0 mi°4.5 mphScattered Clouds
5:20 PM87.8 °F53.6 °F31 %29.95 in6.2 miESE (110°)3.5 mphScattered Clouds
5:50 PM87.8 °F53.6 °F31 %29.95 in6.2 miVariable3.5 mphScattered Clouds
6:20 PM87.8 °F55.4 °F33 %29.95 in6.2 miSE (140°)3.5 mphScattered Clouds
6:50 PM87.8 °F55.4 °F33 %29.95 in6.2 miVariable2.3 mphMostly Cloudy
7:20 PM86.0 °F55.4 °F35 %29.95 in6.2 miSSE (150°)3.5 mphMostly Cloudy
7:50 PM82.4 °F60.8 °F48 %29.95 in6.2 miWest (280°)3.5 mphMostly Cloudy
8:00 PM82.0 °F60.0 °F37 %29.91 in31.0 miWest (280°)4.5 mphScattered Clouds
8:20 PM80.6 °F59.0 °F48 %29.95 in6.2 miWNW (300°)3.5 mphMostly Cloudy
8:50 PM80.6 °F57.2 °F45 %29.95 in6.2 miNW (310°)8.1 mphMostly Cloudy
9:20 PM80.6 °F57.2 °F45 %29.95 in6.2 miNW (310°)5.8 mphMostly Cloudy
9:50 PM78.8 °F57.2 °F47 %29.98 in6.2 miNNW (340°)5.8 mphMostly Cloudy
10:20 PM77.0 °F59.0 °F54 %29.98 in6.2 miNNW (330°)4.6 mphMostly Cloudy
10:50 PM75.2 °F60.8 °F61 %30.01 in6.2 miSSW (210°)8.1 mphMostly Cloudy
11:00 PM75.0 °F60.0 °F50 %29.98 in12.0 miSSW (210°)8.9 mphScattered Clouds
11:20 PM69.8 °F64.4 °F83 %30.04 in5.0 miWest (280°)23.0 mphRainHeavy Rain Showers
11:50 PM69.8 °F64.4 °F83 %30.04 in6.2 miWNW (300°)17.3 mphRainLight Rain Showers
Hourly data recorded from LOWL, located miles away from Linz, Austria







STORIES FROM OUR PARTNERS